User: anonymous   Login
Location: Fort Wayne
(41.1310°N, 85.1290°W)
Time: 16:54:25
(UTC-04:00)
Language:

CZ-2C R/B - Orbit

View from above orbital plane
View from above orbital plane
View from above satellite
View from above satellite

Ground track
Ground track

The orbit data is extracted from the following two-line orbital elements,

1 36089U 09061B   17202.05139212 +.00000064 +00000-0 +27478-4 0  9999
2 36089 098.0526 202.3482 0080881 301.9490 101.6749 14.49669599406527
Epoch (UTC): 21 July 2017 01:14:00
Eccentricity: 0.0080881
inclination: 98.0526°
perigee height: 669 km
apogee height: 784 km
right ascension of ascending node: 202.3482°
argument of perigee: 301.9490°
revolutions per day: 14.49669599
mean anomaly at epoch: 101.6749°
orbit number at epoch: 40652

The dashed part of the orbit path shows where the satellite is in the earth's shadow,  

DLR